START_TIME,STEP,MOV.,M6,t_acc.,M7,t_acc.,M19,t_acc.,H36,t_acc.
1981-08-30 12:00:27.640 ,5,0,0.,12.0,0.,12.0,0.,12.0,0.,12.0
1981-08-30 12:00:39.640 ,5,0,0.,12.0,0.,12.0,0.,12.0,0.,12.0
1981-08-30 12:00:51.640 ,6,1,0.,12.0,0.,12.0,0.,12.0,0.,12.0
1981-08-30 12:01:03.640 ,6,1,0.,12.0,0.,12.0,0.,12.0,0.,12.0
1981-08-30 12:01:15.640 ,6,0,0.,12.0,0.,12.0,0.,12.0,0.,12.0
1981-08-30 12:01:27.640 ,6,0,0.,12.0,0.,12.0,0.,12.0,0.,12.0
1981-08-30 12:01:39.640 ,7,1,0.,12.0,0.,12.0,0.,12.0,0.,12.0
1981-08-30 12:01:51.640 ,7,1,0.,12.0,0.,12.0,0.,12.0,0.,12.0
1981-08-30 12:02:03.640 ,7,0,0.,12.0,0.,12.0,0.,12.0,0.,12.0
1981-08-30 12:02:15.640 ,7,0,0.,12.0,0.,12.0,0.,12.0,0.,12.0
1981-08-30 12:02:27.640 ,7,1,0.,12.0,0.,12.0,0.,12.0,0.,12.0
1981-08-30 12:02:39.640 ,7,1,0.,12.0,0.,12.0,0.,12.0,0.,12.0
1981-08-30 12:02:51.640 ,7,0,0.,12.0,0.,12.0,0.,12.0,0.,12.0
1981-08-30 12:03:03.640 ,7,0,0.,12.0,0.,12.0,0.,12.0,0.,12.0
1981-08-30 12:03:15.640 ,6,1,0.,12.0,0.,12.0,0.,12.0,0.,12.0
1981-08-30 12:03:27.640 ,6,1,0.,12.0,0.,12.0,0.,12.0,0.,12.0
1981-08-30 12:03:39.640 ,6,0,0.,12.0,0.,12.0,0.,12.0,0.,12.0
1981-08-30 12:03:51.640 ,6,0,0.,12.0,0.,12.0,0.,12.0,0.,12.0
1981-08-30 12:04:03.640 ,5,1,0.,12.0,0.,12.0,0.,12.0,0.,12.0
1981-08-30 12:04:15.640 ,5,1,0.,12.0,0.,12.0,0.,12.0,0.,12.0
1981-08-30 12:04:27.640 ,5,0,0.,12.0,0.,12.0,0.,12.0,0.,12.0
1981-08-30 12:04:39.640 ,5,0,0.,12.0,0.,12.0,0.,12.0,0.,12.0
1981-08-30 12:04:51.640 ,4,1,0.,12.0,0.,12.0,0.,12.0,0.,12.0
1981-08-30 12:05:03.640 ,4,1,0.,12.0,0.,12.0,0.,12.0,0.,12.0
1981-08-30 12:05:15.640 ,4,0,0.,12.0,0.,12.0,0.,12.0,0.,12.0
1981-08-30 12:05:27.640 ,4,0,0.,12.0,0.,12.0,0.,12.0,0.,12.0
1981-08-30 12:05:39.640 ,3,1,0.,12.0,0.,12.0,0.,12.0,0.,12.0
1981-08-30 12:05:51.640 ,3,1,0.,12.0,0.,12.0,0.,12.0,0.,12.0
1981-08-30 12:06:03.640 ,3,0,0.,12.0,0.,12.0,0.,12.0,0.,12.0
1981-08-30 12:06:15.640 ,3,0,0.,12.0,0.,12.0,0.,12.0,0.,12.0
1981-08-30 12:06:27.640 ,2,1,0.,12.0,0.,12.0,0.,12.0,0.,12.0
1981-08-30 12:06:39.640 ,2,1,0.,12.0,0.,12.0,0.,12.0,0.,12.0
1981-08-30 12:06:51.640 ,2,0,0.,12.0,0.,12.0,0.,12.0,0.,12.0
1981-08-30 12:07:03.640 ,2,0,0.,12.0,0.,12.0,0.,12.0,0.,12.0
1981-08-30 12:07:15.640 ,1,1,0.,12.0,0.,12.0,0.,12.0,0.,12.0
1981-08-30 12:07:27.640 ,1,1,0.,12.0,0.,12.0,0.,12.0,0.,12.0
1981-08-30 12:07:39.640 ,1,0,0.,12.0,0.,12.0,0.,12.0,0.,12.0
1981-08-30 12:07:51.640 ,1,0,0.,12.0,0.,12.0,0.,12.0,0.,12.0
1981-08-30 12:08:03.640 ,0,1,0.,12.0,0.,12.0,0.,12.0,0.,12.0
1981-08-30 12:08:15.640 ,0,1,0.,12.0,0.,12.0,0.,12.0,0.,12.0
1981-08-30 12:08:27.640 ,0,0,0.,12.0,0.,12.0,0.,12.0,0.,12.0
1981-08-30 12:08:39.640 ,0,0,1.,12.0,0.,12.0,0.,12.0,0.,12.0
1981-08-30 12:08:51.630 ,0,1,0.,12.0,0.,12.0,0.,12.0,0.,12.0
1981-08-30 12:09:03.640 ,0,1,0.,12.0,0.,12.0,0.,12.0,0.,12.0
1981-08-30 12:09:15.630 ,0,0,0.,12.0,0.,12.0,0.,12.0,0.,12.0
1981-08-30 12:09:27.640 ,0,0,0.,12.0,0.,12.0,0.,12.0,0.,12.0
1981-08-30 12:09:39.630 ,1,1,0.,12.0,0.,12.0,0.,12.0,0.,12.0
1981-08-30 12:09:51.640 ,1,1,0.,12.0,0.,12.0,0.,12.0,0.,12.0
1981-08-30 12:10:03.630 ,1,0,0.,12.0,0.,12.0,0.,12.0,0.,12.0
1981-08-30 12:10:15.640 ,1,0,0.,12.0,0.,12.0,0.,12.0,0.,12.0
1981-08-30 12:10:27.630 ,2,1,0.,12.0,0.,12.0,0.,12.0,0.,12.0
1981-08-30 12:10:39.640 ,2,1,0.,12.0,0.,12.0,0.,12.0,0.,12.0
1981-08-30 12:10:51.630 ,2,0,0.,12.0,0.,12.0,0.,12.0,0.,12.0
1981-08-30 12:11:03.640 ,2,0,0.,12.0,0.,12.0,0.,12.0,0.,12.0
1981-08-30 12:11:15.630 ,3,1,0.,12.0,0.,12.0,0.,12.0,0.,12.0
1981-08-30 12:11:27.640 ,3,1,0.,12.0,0.,12.0,0.,12.0,0.,12.0
1981-08-30 12:11:39.630 ,4,1,0.,12.0,0.,12.0,0.,12.0,0.,12.0
1981-08-30 12:11:51.640 ,4,1,0.,12.0,0.,12.0,0.,12.0,0.,12.0
1981-08-30 12:12:03.630 ,5,1,0.,12.0,0.,12.0,0.,12.0,0.,12.0
1981-08-30 12:12:15.640 ,5,1,0.,12.0,0.,12.0,0.,12.0,0.,12.0
1981-08-30 12:12:27.630 ,6,1,0.,12.0,0.,12.0,0.,12.0,0.,12.0
1981-08-30 12:12:39.640 ,6,1,0.,12.0,0.,12.0,0.,12.0,0.,12.0
1981-08-30 12:12:51.630 ,7,1,0.,12.0,0.,12.0,0.,12.0,0.,12.0
1981-08-30 12:13:03.640 ,7,1,0.,12.0,0.,12.0,0.,12.0,0.,12.0
1981-08-30 12:13:15.630 ,7,1,0.,12.0,0.,12.0,0.,12.0,0.,12.0
1981-08-30 12:13:27.640 ,7,1,0.,12.0,0.,12.0,0.,12.0,0.,12.0
1981-08-30 12:13:39.630 ,6,1,0.,12.0,0.,12.0,0.,12.0,0.,12.0
1981-08-30 12:13:51.640 ,6,1,0.,12.0,0.,12.0,0.,12.0,0.,12.0
1981-08-30 12:14:03.630 ,5,1,0.,12.0,0.,12.0,0.,12.0,0.,12.0
1981-08-30 12:14:15.640 ,5,1,0.,12.0,0.,12.0,0.,12.0,0.,12.0
1981-08-30 12:14:27.630 ,4,1,0.,12.0,0.,12.0,0.,12.0,0.,12.0
1981-08-30 12:14:39.640 ,4,1,0.,12.0,0.,12.0,0.,12.0,0.,12.0
1981-08-30 12:14:51.630 ,3,1,0.,12.0,0.,12.0,0.,12.0,0.,12.0
1981-08-30 12:15:03.640 ,3,1,0.,12.0,0.,12.0,0.,12.0,0.,12.0
1981-08-30 12:15:15.630 ,2,1,0.,12.0,0.,12.0,0.,12.0,0.,12.0
1981-08-30 12:15:27.640 ,2,1,0.,12.0,0.,12.0,0.,12.0,0.,12.0
1981-08-30 12:15:39.630 ,1,1,0.,12.0,0.,12.0,0.,12.0,0.,12.0
1981-08-30 12:15:51.640 ,1,1,0.,12.0,0.,12.0,0.,12.0,0.,12.0
1981-08-30 12:16:03.630 ,0,1,0.,12.0,0.,12.0,0.,12.0,0.,12.0
1981-08-30 12:16:15.640 ,0,1,0.,12.0,0.,12.0,0.,12.0,0.,12.0
1981-08-30 12:16:27.630 ,0,1,0.,12.0,0.,12.0,0.,12.0,0.,12.0
1981-08-30 12:16:39.640 ,0,1,0.,12.0,0.,12.0,0.,12.0,0.,12.0
1981-08-30 12:16:51.630 ,1,1,0.,12.0,0.,12.0,0.,12.0,0.,12.0
1981-08-30 12:17:03.640 ,1,1,0.,12.0,0.,12.0,0.,12.0,0.,12.0
1981-08-30 12:17:15.640 ,2,1,0.,12.0,0.,12.0,0.,12.0,0.,12.0
1981-08-30 12:17:27.640 ,2,1,0.,12.0,0.,12.0,0.,12.0,0.,12.0
1981-08-30 12:17:39.640 ,3,1,0.,12.0,0.,12.0,0.,12.0,0.,12.0
1981-08-30 12:17:51.640 ,3,1,0.,12.0,0.,12.0,0.,12.0,0.,12.0
1981-08-30 12:18:03.640 ,3,0,0.,12.0,0.,12.0,0.,12.0,0.,12.0
1981-08-30 12:18:15.640 ,3,0,0.,12.0,0.,12.0,0.,12.0,0.,12.0
1981-08-30 12:18:27.640 ,4,1,0.,12.0,0.,12.0,0.,12.0,0.,12.0
1981-08-30 12:18:39.640 ,4,1,0.,12.0,0.,12.0,0.,12.0,0.,12.0
1981-08-30 12:18:51.640 ,4,0,0.,12.0,0.,12.0,0.,12.0,0.,12.0
1981-08-30 12:19:03.640 ,4,0,0.,12.0,0.,12.0,0.,12.0,0.,12.0
1981-08-30 12:19:15.640 ,5,1,0.,12.0,0.,12.0,0.,12.0,0.,12.0
1981-08-30 12:19:27.640 ,5,1,0.,12.0,0.,12.0,0.,12.0,0.,12.0
1981-08-30 12:19:39.640 ,5,0,0.,12.0,0.,12.0,0.,12.0,0.,12.0
1981-08-30 12:19:51.640 ,5,0,0.,12.0,0.,12.0,0.,12.0,0.,12.0
1981-08-30 12:20:03.630 ,6,1,0.,12.0,0.,12.0,0.,12.0,0.,12.0
1981-08-30 12:20:15.630 ,6,1,0.,12.0,0.,12.0,0.,12.0,0.,12.0
1981-08-30 12:20:27.630 ,6,0,0.,12.0,0.,12.0,0.,12.0,0.,12.0
1981-08-30 12:20:39.630 ,6,0,0.,12.0,0.,12.0,0.,12.0,0.,12.0
1981-08-30 12:20:51.630 ,7,1,0.,12.0,0.,12.0,0.,12.0,0.,12.0
1981-08-30 12:21:03.630 ,7,1,0.,12.0,0.,12.0,0.,12.0,0.,12.0
1981-08-30 12:21:15.630 ,7,0,0.,12.0,0.,12.0,0.,12.0,0.,12.0
1981-08-30 12:21:27.630 ,7,0,0.,12.0,0.,12.0,0.,12.0,0.,12.0
1981-08-30 12:21:39.630 ,7,1,0.,12.0,0.,12.0,0.,12.0,0.,12.0
1981-08-30 12:21:51.630 ,7,1,0.,12.0,0.,12.0,0.,12.0,0.,12.0
1981-08-30 12:22:03.630 ,7,0,0.,12.0,0.,12.0,0.,12.0,0.,12.0
1981-08-30 12:22:15.630 ,7,0,0.,12.0,0.,12.0,0.,12.0,0.,12.0
1981-08-30 12:22:27.630 ,6,1,0.,12.0,0.,12.0,0.,12.0,0.,12.0
1981-08-30 12:22:39.630 ,6,1,0.,12.0,0.,12.0,0.,12.0,0.,12.0
1981-08-30 12:22:51.630 ,6,0,0.,12.0,0.,12.0,0.,12.0,0.,12.0
1981-08-30 12:23:03.630 ,6,0,0.,12.0,0.,12.0,0.,12.0,0.,12.0
1981-08-30 12:23:15.630 ,5,1,0.,12.0,0.,12.0,0.,12.0,0.,12.0
1981-08-30 12:23:27.630 ,5,1,0.,12.0,0.,12.0,0.,12.0,0.,12.0
1981-08-30 12:23:39.630 ,5,0,0.,12.0,0.,12.0,0.,12.0,0.,12.0
1981-08-30 12:23:51.630 ,5,0,0.,12.0,0.,12.0,0.,12.0,0.,12.0
1981-08-30 12:24:03.630 ,4,1,0.,12.0,0.,12.0,0.,12.0,0.,12.0
1981-08-30 12:24:15.630 ,4,1,0.,12.0,0.,12.0,0.,12.0,0.,12.0
1981-08-30 12:24:27.630 ,4,0,0.,12.0,0.,12.0,0.,12.0,0.,12.0
1981-08-30 12:24:39.630 ,4,0,0.,12.0,0.,12.0,0.,12.0,0.,12.0
1981-08-30 12:24:51.630 ,3,1,0.,12.0,0.,12.0,0.,12.0,0.,12.0
1981-08-30 12:25:03.630 ,3,1,0.,12.0,0.,12.0,0.,12.0,0.,12.0
1981-08-30 12:25:15.630 ,3,0,0.,12.0,0.,12.0,0.,12.0,0.,12.0
1981-08-30 12:25:27.630 ,3,0,0.,12.0,0.,12.0,0.,12.0,0.,12.0
1981-08-30 12:25:39.630 ,2,1,0.,12.0,0.,12.0,0.,12.0,0.,12.0
1981-08-30 12:25:51.630 ,2,1,0.,12.0,0.,12.0,0.,12.0,0.,12.0
1981-08-30 12:26:03.630 ,2,0,0.,12.0,0.,12.0,0.,12.0,0.,12.0
1981-08-30 12:26:15.630 ,2,0,0.,12.0,0.,12.0,0.,12.0,0.,12.0
1981-08-30 12:26:27.630 ,1,1,0.,12.0,0.,12.0,0.,12.0,0.,12.0
1981-08-30 12:26:39.630 ,1,1,0.,12.0,0.,12.0,0.,12.0,0.,12.0
1981-08-30 12:26:51.630 ,1,0,0.,12.0,0.,12.0,0.,12.0,0.,12.0
1981-08-30 12:27:03.630 ,1,0,0.,12.0,0.,12.0,0.,12.0,0.,12.0
1981-08-30 12:27:15.630 ,0,1,0.,12.0,0.,12.0,0.,12.0,0.,12.0
1981-08-30 12:27:27.630 ,0,1,0.,12.0,0.,12.0,0.,12.0,0.,12.0
1981-08-30 12:27:39.630 ,0,0,0.,12.0,0.,12.0,0.,12.0,0.,12.0
1981-08-30 12:27:51.630 ,0,0,0.,12.0,0.,12.0,0.,12.0,0.,12.0
1981-08-30 12:28:03.630 ,0,1,0.,12.0,0.,12.0,0.,12.0,0.,12.0
1981-08-30 12:28:15.630 ,0,1,0.,12.0,0.,12.0,0.,12.0,0.,12.0
1981-08-30 12:28:27.630 ,0,0,0.,12.0,0.,12.0,0.,12.0,0.,12.0
1981-08-30 12:28:39.630 ,0,0,0.,12.0,0.,12.0,0.,12.0,0.,12.0
1981-08-30 12:28:51.630 ,1,1,0.,12.0,0.,12.0,0.,12.0,0.,12.0
1981-08-30 12:29:03.630 ,1,1,0.,12.0,0.,12.0,0.,12.0,0.,12.0
1981-08-30 12:29:15.630 ,1,0,0.,12.0,0.,12.0,0.,12.0,0.,12.0
1981-08-30 12:29:27.630 ,1,0,0.,12.0,0.,12.0,0.,12.0,0.,12.0
1981-08-30 12:29:39.630 ,2,1,0.,12.0,0.,12.0,0.,12.0,0.,12.0
1981-08-30 12:29:51.630 ,2,1,0.,12.0,0.,12.0,0.,12.0,0.,12.0
1981-08-30 12:30:03.630 ,2,0,0.,12.0,0.,12.0,0.,12.0,0.,12.0
1981-08-30 12:30:15.630 ,2,0,0.,12.0,0.,12.0,0.,12.0,0.,12.0
1981-08-30 12:30:27.630 ,3,1,0.,12.0,0.,12.0,0.,12.0,0.,12.0
1981-08-30 12:30:39.630 ,3,1,0.,12.0,0.,12.0,0.,12.0,0.,12.0
1981-08-30 12:30:51.630 ,4,1,0.,12.0,0.,12.0,0.,12.0,0.,12.0
1981-08-30 12:31:03.630 ,4,1,0.,12.0,0.,12.0,0.,12.0,0.,12.0
1981-08-30 12:31:15.630 ,5,1,0.,12.0,0.,12.0,0.,12.0,0.,12.0
1981-08-30 12:31:27.630 ,5,1,0.,12.0,0.,12.0,0.,12.0,0.,12.0
1981-08-30 12:31:39.630 ,6,1,0.,12.0,0.,12.0,0.,12.0,0.,12.0
1981-08-30 12:31:51.630 ,6,1,0.,12.0,0.,12.0,0.,12.0,0.,12.0
1981-08-30 12:32:03.630 ,7,1,0.,12.0,0.,12.0,0.,12.0,0.,12.0
1981-08-30 12:32:15.630 ,7,1,0.,12.0,0.,12.0,0.,12.0,0.,12.0
1981-08-30 12:32:27.630 ,7,1,0.,12.0,0.,12.0,0.,12.0,0.,12.0
1981-08-30 12:32:39.630 ,7,1,0.,12.0,0.,12.0,0.,12.0,0.,12.0
1981-08-30 12:32:51.630 ,6,1,0.,12.0,0.,12.0,0.,12.0,0.,12.0
1981-08-30 12:33:03.630 ,6,1,0.,12.0,0.,12.0,0.,12.0,0.,12.0
1981-08-30 12:33:15.630 ,5,1,0.,12.0,0.,12.0,0.,12.0,0.,12.0
1981-08-30 12:33:27.630 ,5,1,0.,12.0,0.,12.0,0.,12.0,0.,12.0
1981-08-30 12:33:39.630 ,4,1,0.,12.0,0.,12.0,0.,12.0,0.,12.0
1981-08-30 12:33:51.630 ,4,1,0.,12.0,0.,12.0,0.,12.0,0.,12.0
1981-08-30 12:34:03.630 ,3,1,0.,12.0,0.,12.0,0.,12.0,0.,12.0
1981-08-30 12:34:15.630 ,3,1,0.,12.0,0.,12.0,0.,12.0,0.,12.0
1981-08-30 12:34:27.630 ,2,1,0.,12.0,0.,12.0,0.,12.0,0.,12.0
1981-08-30 12:34:39.630 ,2,1,0.,12.0,0.,12.0,0.,12.0,0.,12.0
1981-08-30 12:34:51.630 ,1,1,0.,12.0,0.,12.0,0.,12.0,0.,12.0
1981-08-30 12:35:03.630 ,1,1,0.,12.0,0.,12.0,0.,12.0,0.,12.0
1981-08-30 12:35:15.630 ,0,1,0.,12.0,0.,12.0,0.,12.0,0.,12.0
1981-08-30 12:35:27.630 ,0,1,0.,12.0,0.,12.0,0.,12.0,0.,12.0
1981-08-30 12:35:39.630 ,0,1,0.,12.0,0.,12.0,0.,12.0,0.,12.0
1981-08-30 12:35:51.630 ,0,1,0.,12.0,0.,12.0,0.,12.0,0.,12.0
1981-08-30 12:36:03.630 ,1,1,0.,12.0,0.,12.0,0.,12.0,0.,12.0
1981-08-30 12:36:15.630 ,1,1,0.,12.0,0.,12.0,0.,12.0,0.,12.0
1981-08-30 12:36:27.630 ,2,1,0.,12.0,0.,12.0,0.,12.0,0.,12.0
1981-08-30 12:36:39.630 ,2,1,0.,12.0,0.,12.0,0.,12.0,0.,12.0
1981-08-30 12:36:51.630 ,3,1,1.,12.0,0.,12.0,0.,12.0,0.,12.0
1981-08-30 12:37:03.630 ,3,1,0.,12.0,0.,12.0,0.,12.0,0.,12.0
1981-08-30 12:37:15.630 ,3,0,0.,12.0,0.,12.0,0.,12.0,0.,12.0
1981-08-30 12:37:27.630 ,3,0,0.,12.0,0.,12.0,0.,12.0,0.,12.0
1981-08-30 12:37:39.630 ,4,1,0.,12.0,0.,12.0,0.,12.0,0.,12.0
1981-08-30 12:37:51.630 ,4,1,0.,12.0,0.,12.0,0.,12.0,0.,12.0
1981-08-30 12:38:03.630 ,4,0,0.,12.0,0.,12.0,0.,12.0,0.,12.0
1981-08-30 12:38:15.630 ,4,0,0.,12.0,0.,12.0,0.,12.0,0.,12.0
1981-08-30 12:38:27.630 ,5,1,0.,12.0,0.,12.0,0.,12.0,0.,12.0
1981-08-30 12:38:39.630 ,5,1,0.,12.0,0.,12.0,0.,12.0,0.,12.0
1981-08-30 12:38:51.630 ,5,0,0.,12.0,0.,12.0,0.,12.0,0.,12.0
1981-08-30 12:39:03.630 ,5,0,0.,12.0,0.,12.0,0.,12.0,0.,12.0
1981-08-30 12:39:15.630 ,6,1,0.,12.0,0.,12.0,0.,12.0,0.,12.0
1981-08-30 12:39:27.630 ,6,1,0.,12.0,0.,12.0,0.,12.0,0.,12.0
1981-08-30 12:39:39.630 ,6,0,0.,12.0,0.,12.0,0.,12.0,0.,12.0
1981-08-30 12:39:51.630 ,6,0,0.,12.0,0.,12.0,0.,12.0,0.,12.0
1981-08-30 12:40:03.630 ,7,1,0.,12.0,0.,12.0,0.,12.0,0.,12.0
1981-08-30 12:40:15.630 ,7,1,0.,12.0,0.,12.0,0.,12.0,0.,12.0
1981-08-30 12:40:27.630 ,7,0,0.,12.0,0.,12.0,0.,12.0,0.,12.0
1981-08-30 12:40:39.630 ,7,0,0.,12.0,0.,12.0,0.,12.0,0.,12.0
1981-08-30 12:40:51.630 ,7,1,0.,12.0,0.,12.0,0.,12.0,0.,12.0
1981-08-30 12:41:03.630 ,7,1,0.,12.0,0.,12.0,0.,12.0,0.,12.0
1981-08-30 12:41:15.630 ,7,0,0.,12.0,0.,12.0,0.,12.0,0.,12.0
1981-08-30 12:41:27.630 ,7,0,0.,12.0,0.,12.0,0.,12.0,0.,12.0
1981-08-30 12:41:39.630 ,6,1,0.,12.0,0.,12.0,0.,12.0,0.,12.0
1981-08-30 12:41:51.630 ,6,1,0.,12.0,0.,12.0,0.,12.0,0.,12.0
1981-08-30 12:42:03.630 ,6,0,0.,12.0,0.,12.0,0.,12.0,0.,12.0
1981-08-30 12:42:15.630 ,6,0,0.,12.0,0.,12.0,0.,12.0,0.,12.0
1981-08-30 12:42:27.630 ,5,1,0.,12.0,0.,12.0,0.,12.0,0.,12.0
1981-08-30 12:42:39.630 ,5,1,0.,12.0,0.,12.0,0.,12.0,0.,12.0
1981-08-30 12:42:51.630 ,5,0,0.,12.0,0.,12.0,0.,12.0,0.,12.0
1981-08-30 12:43:03.630 ,5,0,0.,12.0,0.,12.0,0.,12.0,0.,12.0
1981-08-30 12:43:15.630 ,4,1,0.,12.0,0.,12.0,0.,12.0,0.,12.0
1981-08-30 12:43:27.630 ,4,1,0.,12.0,0.,12.0,0.,12.0,0.,12.0
1981-08-30 12:43:39.630 ,4,0,0.,12.0,0.,12.0,0.,12.0,0.,12.0
1981-08-30 12:43:51.630 ,4,0,0.,12.0,0.,12.0,0.,12.0,0.,12.0
1981-08-30 12:44:03.630 ,3,1,0.,12.0,0.,12.0,0.,12.0,0.,12.0
1981-08-30 12:44:15.630 ,3,1,0.,12.0,0.,12.0,0.,12.0,0.,12.0
1981-08-30 12:44:27.630 ,3,0,0.,12.0,0.,12.0,0.,12.0,0.,12.0
1981-08-30 12:44:39.630 ,3,0,0.,12.0,0.,12.0,0.,12.0,0.,12.0
1981-08-30 12:44:51.630 ,2,1,0.,12.0,0.,12.0,0.,12.0,0.,12.0
1981-08-30 12:45:03.630 ,2,1,0.,12.0,0.,12.0,0.,12.0,0.,12.0
1981-08-30 12:45:15.630 ,2,0,0.,12.0,0.,12.0,0.,12.0,0.,12.0
1981-08-30 12:45:27.630 ,2,0,0.,12.0,0.,12.0,0.,12.0,0.,12.0
1981-08-30 12:45:39.630 ,1,1,0.,12.0,0.,12.0,0.,12.0,0.,12.0
1981-08-30 12:45:51.630 ,1,1,0.,12.0,0.,12.0,0.,12.0,0.,12.0
1981-08-30 12:46:03.630 ,1,0,0.,12.0,0.,12.0,0.,12.0,0.,12.0
1981-08-30 12:46:15.630 ,1,0,0.,12.0,0.,12.0,0.,12.0,0.,12.0
1981-08-30 12:46:27.630 ,0,1,0.,12.0,0.,12.0,0.,12.0,0.,12.0
1981-08-30 12:46:39.630 ,0,1,0.,12.0,0.,12.0,0.,12.0,0.,12.0
1981-08-30 12:46:51.630 ,0,0,0.,12.0,0.,12.0,0.,12.0,0.,12.0
1981-08-30 12:47:03.630 ,0,0,0.,12.0,0.,12.0,0.,12.0,0.,12.0
1981-08-30 12:47:15.630 ,0,1,0.,12.0,0.,12.0,0.,12.0,0.,12.0
1981-08-30 12:47:27.630 ,0,1,0.,12.0,0.,12.0,0.,12.0,0.,12.0
1981-08-30 12:47:39.630 ,0,0,0.,12.0,0.,12.0,0.,12.0,0.,12.0
1981-08-30 12:47:51.630 ,0,0,0.,12.0,0.,12.0,0.,12.0,0.,12.0
1981-08-30 12:48:03.630 ,1,1,0.,12.0,0.,12.0,0.,12.0,0.,12.0
1981-08-30 12:48:15.630 ,1,1,0.,12.0,0.,12.0,0.,12.0,0.,12.0
1981-08-30 12:48:27.630 ,1,0,0.,12.0,0.,12.0,0.,12.0,0.,12.0
1981-08-30 12:48:39.630 ,1,0,0.,12.0,0.,12.0,0.,12.0,0.,12.0
1981-08-30 12:48:51.630 ,2,1,0.,12.0,0.,12.0,0.,12.0,0.,12.0
1981-08-30 12:49:03.630 ,2,1,0.,12.0,0.,12.0,0.,12.0,0.,12.0
1981-08-30 12:49:15.630 ,2,0,0.,12.0,0.,12.0,0.,12.0,0.,12.0
1981-08-30 12:49:27.630 ,2,0,0.,12.0,0.,12.0,0.,12.0,0.,12.0
1981-08-30 12:49:39.630 ,3,1,0.,12.0,0.,12.0,0.,12.0,0.,12.0
1981-08-30 12:49:51.630 ,3,1,0.,12.0,0.,12.0,0.,12.0,0.,12.0
1981-08-30 12:50:03.630 ,4,1,0.,12.0,0.,12.0,0.,12.0,0.,12.0
1981-08-30 12:50:15.630 ,4,1,0.,12.0,0.,12.0,0.,12.0,0.,12.0
1981-08-30 12:50:27.630 ,5,1,0.,12.0,0.,12.0,0.,12.0,0.,12.0
1981-08-30 12:50:39.630 ,5,1,0.,12.0,0.,12.0,0.,12.0,0.,12.0
1981-08-30 12:50:51.630 ,6,1,0.,12.0,0.,12.0,0.,12.0,0.,12.0
1981-08-30 12:51:03.630 ,6,1,0.,12.0,0.,12.0,0.,12.0,0.,12.0
1981-08-30 12:51:15.630 ,7,1,0.,12.0,0.,12.0,0.,12.0,0.,12.0
1981-08-30 12:51:27.630 ,7,1,0.,12.0,0.,12.0,0.,12.0,0.,12.0
1981-08-30 12:51:39.630 ,7,1,0.,12.0,0.,12.0,0.,12.0,0.,12.0
1981-08-30 12:51:51.630 ,7,1,0.,12.0,0.,12.0,0.,12.0,0.,12.0
1981-08-30 12:52:03.630 ,6,1,0.,12.0,0.,12.0,0.,12.0,0.,12.0
1981-08-30 12:52:15.630 ,6,1,0.,12.0,0.,12.0,0.,12.0,0.,12.0
1981-08-30 12:52:27.630 ,5,1,0.,12.0,0.,12.0,0.,12.0,0.,12.0
1981-08-30 12:52:39.630 ,5,1,0.,12.0,0.,12.0,0.,12.0,0.,12.0
1981-08-30 12:52:51.630 ,4,1,0.,12.0,0.,12.0,0.,12.0,0.,12.0
1981-08-30 12:53:03.630 ,4,1,0.,12.0,0.,12.0,0.,12.0,0.,12.0
1981-08-30 12:53:15.630 ,3,1,0.,12.0,0.,12.0,0.,12.0,0.,12.0
1981-08-30 12:53:27.630 ,3,1,0.,12.0,0.,12.0,0.,12.0,0.,12.0
1981-08-30 12:53:39.630 ,2,1,0.,12.0,0.,12.0,0.,12.0,0.,12.0
1981-08-30 12:53:51.630 ,2,1,0.,12.0,0.,12.0,0.,12.0,0.,12.0
1981-08-30 12:54:03.630 ,1,1,0.,12.0,0.,12.0,0.,12.0,0.,12.0
1981-08-30 12:54:15.630 ,1,1,0.,12.0,0.,12.0,0.,12.0,0.,12.0
1981-08-30 12:54:27.630 ,0,1,0.,12.0,0.,12.0,0.,12.0,0.,12.0
1981-08-30 12:54:39.630 ,0,1,0.,12.0,0.,12.0,0.,12.0,0.,12.0
1981-08-30 12:54:51.630 ,0,1,0.,12.0,0.,12.0,0.,12.0,0.,12.0
1981-08-30 12:55:03.630 ,0,1,0.,12.0,0.,12.0,0.,12.0,0.,12.0
1981-08-30 12:55:15.630 ,1,1,0.,12.0,0.,12.0,0.,12.0,0.,12.0
1981-08-30 12:55:27.630 ,1,1,0.,12.0,0.,12.0,0.,12.0,0.,12.0
1981-08-30 12:55:39.630 ,2,1,0.,12.0,0.,12.0,0.,12.0,0.,12.0
1981-08-30 12:55:51.630 ,2,1,0.,12.0,0.,12.0,0.,12.0,0.,12.0
1981-08-30 12:56:03.630 ,3,1,0.,12.0,0.,12.0,0.,12.0,0.,12.0
1981-08-30 12:56:15.630 ,3,1,0.,12.0,0.,12.0,0.,12.0,0.,12.0
1981-08-30 12:56:27.630 ,3,0,0.,12.0,0.,12.0,0.,12.0,0.,12.0
1981-08-30 12:56:39.630 ,3,0,0.,12.0,0.,12.0,0.,12.0,0.,12.0
1981-08-30 12:56:51.630 ,4,1,0.,12.0,0.,12.0,0.,12.0,0.,12.0
1981-08-30 12:57:03.630 ,4,1,0.,12.0,0.,12.0,0.,12.0,0.,12.0
1981-08-30 12:57:15.630 ,4,0,0.,12.0,0.,12.0,0.,12.0,0.,12.0
1981-08-30 12:57:27.630 ,4,0,0.,12.0,0.,12.0,0.,12.0,0.,12.0
1981-08-30 12:57:39.630 ,5,1,0.,12.0,0.,12.0,0.,12.0,0.,12.0
1981-08-30 12:57:51.630 ,5,1,0.,12.0,0.,12.0,0.,12.0,0.,12.0
1981-08-30 12:58:03.630 ,5,0,0.,12.0,0.,12.0,0.,12.0,0.,12.0
1981-08-30 12:58:15.630 ,5,0,0.,12.0,0.,12.0,0.,12.0,0.,12.0
1981-08-30 12:58:27.630 ,6,1,0.,12.0,0.,12.0,0.,12.0,0.,12.0
1981-08-30 12:58:39.630 ,6,1,0.,12.0,0.,12.0,0.,12.0,0.,12.0
1981-08-30 12:58:51.630 ,6,0,0.,12.0,0.,12.0,0.,12.0,0.,12.0
1981-08-30 12:59:03.630 ,6,0,0.,12.0,0.,12.0,0.,12.0,0.,12.0
1981-08-30 12:59:15.630 ,7,1,0.,12.0,0.,12.0,0.,12.0,0.,12.0
1981-08-30 12:59:27.630 ,7,1,0.,12.0,0.,12.0,0.,12.0,0.,12.0
1981-08-30 12:59:39.630 ,7,0,0.,12.0,0.,12.0,0.,12.0,0.,12.0
1981-08-30 12:59:51.630 ,7,0,0.,12.0,0.,12.0,0.,12.0,0.,12.0
1981-08-30 13:00:03.630 ,7,1,0.,12.0,0.,12.0,0.,12.0,0.,12.0
1981-08-30 13:00:15.630 ,7,1,0.,12.0,0.,12.0,0.,12.0,0.,12.0
1981-08-30 13:00:27.630 ,7,0,0.,12.0,0.,12.0,0.,12.0,0.,12.0
1981-08-30 13:00:39.630 ,7,0,0.,12.0,0.,12.0,0.,12.0,0.,12.0
1981-08-30 13:00:27.630 ,7,0,0.,12.0,0.,12.0,0.,12.0,0.,12.0
1981-08-30 13:00:39.630 ,7,0,0.,12.0,0.,12.0,0.,12.0,0.,12.0
1981-08-30 13:00:51.630 ,6,1,0.,12.0,0.,12.0,0.,12.0,0.,12.0
1981-08-30 13:01:03.630 ,6,1,0.,12.0,0.,12.0,0.,12.0,0.,12.0
1981-08-30 13:01:15.630 ,6,0,0.,12.0,0.,12.0,0.,12.0,0.,12.0
1981-08-30 13:01:27.630 ,6,0,0.,12.0,0.,12.0,0.,12.0,0.,12.0
1981-08-30 13:01:39.630 ,5,1,0.,12.0,0.,12.0,0.,12.0,0.,12.0
1981-08-30 13:01:51.630 ,5,1,0.,12.0,0.,12.0,0.,12.0,0.,12.0
1981-08-30 13:02:03.630 ,5,0,0.,12.0,0.,12.0,0.,12.0,0.,12.0
1981-08-30 13:02:15.630 ,5,0,0.,12.0,0.,12.0,0.,12.0,0.,12.0
1981-08-30 13:02:27.630 ,4,1,0.,12.0,0.,12.0,0.,12.0,0.,12.0
1981-08-30 13:02:39.630 ,4,1,0.,12.0,0.,12.0,0.,12.0,0.,12.0
1981-08-30 13:02:51.630 ,4,0,0.,12.0,0.,12.0,0.,12.0,0.,12.0
1981-08-30 13:03:03.630 ,4,0,0.,12.0,0.,12.0,0.,12.0,0.,12.0
1981-08-30 13:03:15.630 ,3,1,0.,12.0,0.,12.0,0.,12.0,0.,12.0
1981-08-30 13:03:27.630 ,3,1,0.,12.0,0.,12.0,0.,12.0,0.,12.0
1981-08-30 13:03:39.630 ,3,0,0.,12.0,0.,12.0,0.,12.0,0.,12.0
1981-08-30 13:03:51.630 ,3,0,0.,12.0,0.,12.0,0.,12.0,0.,12.0
1981-08-30 13:04:03.630 ,2,1,0.,12.0,0.,12.0,0.,12.0,0.,12.0
1981-08-30 13:04:15.630 ,2,1,0.,12.0,0.,12.0,0.,12.0,0.,12.0
1981-08-30 13:04:27.630 ,2,0,0.,12.0,0.,12.0,0.,12.0,0.,12.0
1981-08-30 13:04:39.630 ,2,0,0.,12.0,0.,12.0,0.,12.0,0.,12.0
1981-08-30 13:04:51.630 ,1,1,0.,12.0,0.,12.0,0.,12.0,0.,12.0
1981-08-30 13:05:03.630 ,1,1,0.,12.0,0.,12.0,0.,12.0,0.,12.0
1981-08-30 13:05:15.630 ,1,0,0.,12.0,0.,12.0,0.,12.0,0.,12.0
1981-08-30 13:05:27.630 ,1,0,0.,12.0,0.,12.0,0.,12.0,0.,12.0
1981-08-30 13:05:39.630 ,0,1,0.,12.0,0.,12.0,0.,12.0,0.,12.0
1981-08-30 13:05:51.630 ,0,1,0.,12.0,0.,12.0,0.,12.0,0.,12.0
1981-08-30 13:06:03.630 ,0,0,0.,12.0,0.,12.0,0.,12.0,0.,12.0
1981-08-30 13:06:15.630 ,0,0,0.,12.0,0.,12.0,0.,12.0,0.,12.0
1981-08-30 13:06:27.630 ,0,1,0.,12.0,0.,12.0,0.,12.0,0.,12.0
1981-08-30 13:06:39.630 ,0,1,0.,12.0,0.,12.0,0.,12.0,0.,12.0
1981-08-30 13:06:51.630 ,0,0,0.,12.0,0.,12.0,0.,12.0,0.,12.0
1981-08-30 13:07:03.630 ,0,0,0.,12.0,0.,12.0,0.,12.0,0.,12.0
1981-08-30 13:07:15.630 ,1,1,0.,12.0,0.,12.0,0.,12.0,0.,12.0
1981-08-30 13:07:27.630 ,1,1,0.,12.0,0.,12.0,0.,12.0,0.,12.0
1981-08-30 13:07:39.630 ,1,0,0.,12.0,0.,12.0,0.,12.0,0.,12.0
1981-08-30 13:07:51.630 ,1,0,0.,12.0,0.,12.0,0.,12.0,0.,12.0
1981-08-30 13:08:03.630 ,2,1,0.,12.0,0.,12.0,0.,12.0,0.,12.0
1981-08-30 13:08:15.630 ,2,1,0.,12.0,0.,12.0,0.,12.0,0.,12.0
1981-08-30 13:08:27.630 ,2,0,0.,12.0,0.,12.0,0.,12.0,0.,12.0
1981-08-30 13:08:39.630 ,2,0,0.,12.0,0.,12.0,0.,12.0,0.,12.0
1981-08-30 13:08:51.630 ,3,1,0.,12.0,0.,12.0,0.,12.0,0.,12.0
1981-08-30 13:09:03.630 ,3,1,0.,12.0,0.,12.0,0.,12.0,0.,12.0
1981-08-30 13:09:15.630 ,4,1,0.,12.0,0.,12.0,0.,12.0,0.,12.0
1981-08-30 13:09:27.630 ,4,1,0.,12.0,0.,12.0,0.,12.0,0.,12.0
1981-08-30 13:09:39.630 ,5,1,0.,12.0,0.,12.0,0.,12.0,0.,12.0
1981-08-30 13:09:51.630 ,5,1,0.,12.0,0.,12.0,0.,12.0,0.,12.0
1981-08-30 13:10:03.630 ,6,1,0.,12.0,0.,12.0,0.,12.0,0.,12.0
1981-08-30 13:10:15.630 ,6,1,0.,12.0,0.,12.0,0.,12.0,0.,12.0
1981-08-30 13:10:27.630 ,7,1,0.,12.0,0.,12.0,0.,12.0,0.,12.0
1981-08-30 13:10:39.630 ,7,1,0.,12.0,0.,12.0,0.,12.0,0.,12.0
1981-08-30 13:10:51.630 ,7,1,0.,12.0,0.,12.0,0.,12.0,0.,12.0
1981-08-30 13:11:03.630 ,7,1,0.,12.0,0.,12.0,0.,12.0,0.,12.0
1981-08-30 13:11:15.630 ,6,1,0.,12.0,0.,12.0,0.,12.0,0.,12.0
1981-08-30 13:11:27.630 ,6,1,0.,12.0,0.,12.0,0.,12.0,0.,12.0
1981-08-30 13:11:39.630 ,5,1,0.,12.0,0.,12.0,0.,12.0,0.,12.0
1981-08-30 13:11:51.630 ,5,1,0.,12.0,0.,12.0,0.,12.0,0.,12.0
1981-08-30 13:12:03.630 ,4,1,0.,12.0,0.,12.0,0.,12.0,0.,12.0
1981-08-30 13:12:15.630 ,4,1,0.,12.0,0.,12.0,0.,12.0,0.,12.0
1981-08-30 13:12:27.630 ,3,1,0.,12.0,0.,12.0,0.,12.0,0.,12.0
1981-08-30 13:12:39.630 ,3,1,0.,12.0,0.,12.0,0.,12.0,0.,12.0
1981-08-30 13:12:51.630 ,2,1,0.,12.0,0.,12.0,0.,12.0,0.,12.0
1981-08-30 13:13:03.630 ,2,1,0.,12.0,0.,12.0,0.,12.0,0.,12.0
1981-08-30 13:13:15.630 ,1,1,0.,12.0,0.,12.0,0.,12.0,0.,12.0
1981-08-30 13:13:27.630 ,1,1,0.,12.0,0.,12.0,0.,12.0,0.,12.0
1981-08-30 13:13:39.630 ,0,1,0.,12.0,0.,12.0,0.,12.0,0.,12.0
1981-08-30 13:13:51.630 ,0,1,0.,12.0,0.,12.0,0.,12.0,0.,12.0
1981-08-30 13:14:03.630 ,0,1,0.,12.0,0.,12.0,0.,12.0,0.,12.0
1981-08-30 13:14:15.630 ,0,1,0.,12.0,0.,12.0,0.,12.0,0.,12.0
1981-08-30 13:14:27.630 ,1,1,0.,12.0,0.,12.0,0.,12.0,0.,12.0
1981-08-30 13:14:39.630 ,1,1,0.,12.0,0.,12.0,0.,12.0,0.,12.0
1981-08-30 13:14:51.630 ,2,1,0.,12.0,0.,12.0,0.,12.0,0.,12.0
1981-08-30 13:15:03.630 ,2,1,0.,12.0,0.,12.0,0.,12.0,0.,12.0
1981-08-30 13:15:15.630 ,3,1,0.,12.0,0.,12.0,0.,12.0,0.,12.0
1981-08-30 13:15:27.630 ,3,1,0.,12.0,0.,12.0,0.,12.0,0.,12.0
1981-08-30 13:15:39.630 ,3,0,0.,12.0,0.,12.0,0.,12.0,0.,12.0
1981-08-30 13:15:51.630 ,3,0,0.,12.0,0.,12.0,0.,12.0,0.,12.0
1981-08-30 13:16:03.630 ,4,1,0.,12.0,0.,12.0,0.,12.0,0.,12.0
1981-08-30 13:16:15.630 ,4,1,0.,12.0,0.,12.0,0.,12.0,0.,12.0
1981-08-30 13:16:27.630 ,4,0,0.,12.0,0.,12.0,0.,12.0,0.,12.0
1981-08-30 13:16:39.630 ,4,0,0.,12.0,0.,12.0,0.,12.0,0.,12.0
1981-08-30 13:16:51.630 ,5,1,0.,12.0,0.,12.0,0.,12.0,0.,12.0
1981-08-30 13:17:03.630 ,5,1,0.,12.0,0.,12.0,0.,12.0,0.,12.0